Location: *
(58.7167°N, 26.1833°E)
Time: 10:16:01
(UTC+00:00)

SJ 16-02 - Pass Details

Date: 25 August 2019
Orbit: 606 x 617 km, 75.0° (Epoch: 21 October)

Event Time Altitude Azimuth Distance (km) Brightness Sun altitude
Rises 20:20:07 0° 231° (SW) 2,877 4.7 -16.7°
Reaches altitude 10° 20:22:27 10° 239° (WSW) 1,978 3.9 -16.8°
Maximum altitude 20:26:38 40° 310° (NW) 913 2.7 -17.1°
Drops below altitude 10° 20:30:51 10° 21° (NNE) 1,994 4.5 -17.4°
Sets 20:33:14 0° 29° (NNE) 2,905 5.3 -17.5°
